FW8758 Weather Reports


time (UTC)temp
C
wind
direction
speed
KPH
gust
KPH
rain 1hr
cm
rain 24hr
cm
rain mn
cm
humidity
%
barometer
mb
20260506014536 14 205 4.8 16.1 0.00 0.41 0.41 63 1004.7
20260506013035 15 290 6.4 22.5 0.00 0.41 0.41 61 1004.3
20260506011534 15 257 11.3 22.5 0.00 0.41 0.41 60 1004.0
20260506010049 15 244 8.0 24.1 0.00 0.41 0.41 61 1003.7
20260506004535 15 219 6.4 17.7 0.00 0.41 0.41 62 1003.2
20260506003036 15 244 6.4 19.3 0.00 0.41 0.41 64 1003.1
20260506001535 15 275 6.4 17.7 0.00 0.41 0.41 64 1003.2
20260506000034 16 265 4.8 24.1 0.00 0.41 0.41 64 1003.2
20260505234535 16 261 4.8 12.9 0.00 0.41 0.41 63 1002.7
20260505233045 16 235 4.8 16.1 0.00 0.41 0.41 62 1002.5
20260505231536 16 212 8.0 14.5 0.00 0.41 0.41 62 1002.0
20260505230040 16 217 8.0 24.1 0.00 0.41 0.41 61 1002.1
20260505224541 16 268 14.5 27.4 0.00 0.41 0.41 61 1001.8
20260505223032 16 249 8.0 20.9 0.00 0.41 0.41 60 1001.3
20260505221530 16 277 8.0 22.5 0.00 0.41 0.41 66 1001.2
20260505220036 16 262 4.8 14.5 0.00 0.41 0.41 72 1000.9
20260505214534 16 247 3.2 14.5 0.00 0.41 0.41 74 1000.7
20260505213031 16 246 4.8 12.9 0.00 0.41 0.41 75 1000.7
20260505211536 16 248 6.4 19.3 0.10 0.41 0.41 76 1000.2
20260505210036 16 279 4.8 17.7 0.10 0.41 0.41 77 999.9
20260505204535 16 301 4.8 16.1 0.10 0.41 0.41 78 999.6
20260505203037 17 273 4.8 30.6 0.08 0.38 0.38 73 999.6
20260505201548 20 255 12.9 45.1 0.00 0.28 0.28 58 999.3
20260505200037 21 209 20.9 53.1 0.00 0.28 0.28 56 998.1
20260505194536 21 238 17.7 46.7 0.00 0.28 0.28 56 998.1
20260505193035 21 195 12.9 33.8 0.00 0.28 0.28 56 997.7
20260505191533 21 169 16.1 30.6 0.00 0.28 0.28 58 997.9
20260505190036 20 183 11.3 32.2 0.00 0.28 0.28 61 998.1
20260505184532 20 223 12.9 29.0 0.00 0.28 0.28 62 998.2
20260505183053 21 218 12.9 29.0 0.00 0.28 0.28 57 998.2
20260505181535 20 206 11.3 27.4 0.00 0.28 0.28 60 998.4
20260505180035 20 155 8.0 32.2 0.00 0.28 0.28 63 998.6
20260505174532 18 218 4.8 17.7 0.00 0.28 0.28 70 998.8
20260505173040 17 192 4.8 12.9 0.00 0.28 0.28 76 998.9
20260505171544 16 271 3.2 9.7 0.00 0.28 0.28 81 999.0
20260505170037 14 235 0.0 3.2 0.00 0.28 0.28 85 999.4
20260505164531 13 202 1.6 6.4 0.05 0.28 0.28 84 999.9
20260505163030 13 259 3.2 8.0 0.08 0.28 0.28 84 1000.2
20260505161536 13 258 0.0 4.8 0.28 0.28 0.28 86 1000.2
20260505153036 13 130 1.6 11.3 0.18 0.18 0.18 80 1000.5
20260505151537 15 213 9.7 24.1 0.00 0.00 0.00 73 1001.1
20260505124539 14 240 4.8 12.9 0.00 0.58 0.00 64 1000.8
20260505123035 11 220 3.2 9.7 0.00 0.58 0.00 75 1000.8
20260505121537 9 0 0.0 0.0 0.00 0.58 0.00 83 1000.8
20260505120056 8 0 0.0 0.0 0.00 0.58 0.00 85 1001.0
20260505114537 7 0 0.0 0.0 0.00 0.66 0.00 86 1001.0
20260505113040 6 0 0.0 0.0 0.00 0.66 0.00 88 1001.3
20260505111531 6 0 0.0 0.0 0.00 0.66 0.00 90 1001.3
20260505101537 4 0 0.0 0.0 0.00 0.66 0.00 90 1001.2
20260505100030 4 0 0.0 0.0 0.00 0.66 0.00 89 1001.2
20260505094536 4 0 0.0 0.0 0.00 0.66 0.00 89 1001.3
20260505093040 4 0 0.0 0.0 0.00 0.66 0.00 89 1001.5
20260505091530 4 0 0.0 1.6 0.00 0.66 0.00 88 1001.3
20260505090043 5 0 0.0 3.2 0.00 0.66 0.00 88 1001.5
20260505084536 5 0 0.0 3.2 0.00 0.66 0.00 87 1001.5
20260505083034 5 0 1.6 3.2 0.00 0.66 0.00 88 1001.5
20260505081539 5 0 0.0 3.2 0.00 0.66 0.00 87 1001.8
20260505080038 5 80 0.0 3.2 0.00 0.66 0.00 87 1001.7
20260505074536 5 36 1.6 3.2 0.00 0.66 0.00 87 1001.8
20260505073052 5 63 0.0 3.2 0.00 0.66 0.00 86 1001.8
20260505071530 6 0 0.0 3.2 0.00 0.66 0.00 86 1001.9
20260505070034 6 0 0.0 3.2 0.00 0.66 0.00 86 1001.9
20260505064542 6 67 0.0 4.8 0.00 0.66 0.00 85 1002.1
20260505063037 6 39 3.2 4.8 0.00 0.66 0.00 85 1002.2
20260505061547 6 360 0.0 3.2 0.00 0.66 0.00 85 1002.2
20260505060035 6 67 1.6 6.4 0.00 0.66 0.00 85 1002.4
20260505054558 6 49 1.6 3.2 0.00 0.66 0.00 84 1002.5
20260505053036 7 18 0.0 6.4 0.00 0.66 0.00 84 1002.6
20260505051534 7 84 3.2 6.4 0.00 0.66 0.00 83 1002.7
20260505041534 8 61 1.6 4.8 0.00 0.66 0.00 83 1003.3
20260505040035 8 78 3.2 8.0 0.00 0.66 0.00 82 1003.2
20260505034530 8 71 3.2 6.4 0.00 0.66 0.66 81 1003.4
20260505033030 8 47 1.6 4.8 0.00 0.66 0.66 81 1003.4
20260505031543 9 0 1.6 8.0 0.00 0.66 0.66 80 1003.6
20260505030035 9 69 1.6 6.4 0.00 0.66 0.66 80 1003.4
20260505024538 10 65 1.6 4.8 0.00 0.66 0.66 79 1003.7
20260505023035 10 63 1.6 4.8 0.00 0.66 0.66 78 1004.1
20260505021536 10 43 0.0 4.8 0.00 0.66 0.66 77 1004.4
20260505020035 10 63 1.6 4.8 0.00 0.66 0.66 76 1004.3